EHI
0 0 0 0 0 0 0 0 0 0 0 0 0 0 0 0 0 0 0 0 0 0 0 0 0 0 0 0 0 0 0 0 0 0 0 0 0 0 0 0 0 0 0
0 0 0 0 0 0 0 0 0 0 0 0 0 0 0 0 0 0 0 0 0 0 0 0 0 0 0 0 0 0 0 0 0 0 0 0 0 0 0 0 0 0 0
0 0 0 0 0 0 0 0 0 0 0 0 0 0 0 0 0 0 0 0 0 0 0 0 0 0 0 0 0 0 0 0 0 0 0 0 0 0 0 0 0 0 0
0 0 0 0 0 0 0 0 0 0 0 0 0 0 0 0 0 0 0 0 0 0 0 0 0 0 0 0 0 0 0 0 0 0 0 0 0 0 0 0 0 0 0
0 0 0 0 0 0 0 0 0 0 0 0 0 0 0 0 0 0 0 0 0 0 0 0 0 0 0 0 0 0 0 0 0 0 0 0 0 0 0 0 0 0 0
0 0 0 0 0 0 0 0 0 0 0 0 0 0 0 0 0 0 0 0 0 0 0 0 0 0 0 0 0 0 0 0 0 0 0 0 0 0 0 0 0 0 0
0 0 0 0 0 0 0 0 0 0 0 0 0 0 0 0 0 0 0 0 0 0 0 0 0 0 0 0 0 0 0 0 0 0 0 0 0 0 0 0 0 0 0
0 0 0 0 0 0 0 0 0 0 0 0 0 0 0 0 0 0 0 0 0 0 0 0 0 0 0 0 0 0 0 0 0 0 0 0 0 0 0 0 0 0 0
0 0 0 0 0 0 0 0 0 0 0 0 0 0 0 0 0 0 0 0 0 0 0 0 0 0 0 0 0 0 0 0 0 0 0 0 0 0 0 0 0 0 0
0 0 0 0 0 0 0 0 0 0 0 0 0 0 0 0 0 0 0 0 0 0 0 0 0 0 0 0 0 0 0 0 0 0 0 0 0 0 0 0 0 0 0
0 0 0 0 0 0 0 0 0 0 0 0 0 0 0 0 0 0 0 0 0 0 0 0 0 0 0 0 0 0 0 0 0 0 0 0 0 0 0 0 0 0 0
0 0 0 0 0 0 0 0 0 0 0 0 0 0 0 0 0 0 0 0 0 0 0 0 0 0 0 0 0 0 0 0 0 0 0 0 0 0 0 0 0 0 0
0 0 0 0 0 0 0 0 0 0 0 0 0 0 0 0 0 0 0 0 0 0 0 0 0 0 0 0 0 0 0 0 0 0 0 0 0 0 0 0 0 0 0
0 0 0 0 0 0 0 0 0 0 0 0 0 0 0 0 0 0 0 0 0 0 0 0 0 0 0 0 0 0 0 0 0 0 0 0 0 0 0 0 0 0 0
0 0 0 0 0 0 0 0 0 0 0 0 0 0 0 0 0 0 0 0 0 0 0 0 0 0 0 0 0 0 0 0 0 0 0 0 0 0 0 0 0 0 0
0 0 0 0 0 0 0 0 0 0 0 0 0 0 0 0 0 0 0 0 0 0 0 0 0 0 0 0 0 0 0 0 0 0 0 0 0 0 0 0 0 0 0
0 0 0 0 0 0 0 0 0 0 0 0 0 0 0 0 0 0 0 0 0 0 0 0 0 0 0 0 0 0 0 0 0 0 0 0 0 0 0 0 0 0 0
0 0 0 0 0 0 0 0 0 0 0 0 0 0 0 0 0 0 0 0 0 0 0 0 0 0 0 0 0 0 0 0 0 0 0 0 0 0 0 0 0 0 0
0 0 0 0 0 0 0 0 0 0 0 0 0 0 0 0 0 0 0 0 0 0 0 0 0 0 0 0 0 0 0 0 0 0 0 0 0 0 0 0 0 0 0
0 0 0 0 0 0 0 0 0 0 0 0 0 0 0 0 0 0 0 0 0 0 0 0 0 0 0 0 0 0 0 0 0 0 0 0 0 0 0 0 0 0 0
0 0 0 0 0 0 0 0 0 0 0 0 0 0 0 0 0 0 0 0 0 0 0 0 0 0 0 0 0 0 0 0 0 0 0 0 0 0 0 0 0 0 0
0 0 0 0 0 0 0 0 0 0 0 0 0 0 0 0 0 0 0 0 0 0 0 0 0 0 0 0 0 0 0 0 0 0 0 0 0 0 0 0 0 0 0
0 0 0 0 0 0 0 0 0 0 0 0 0 0 0 0 0 0 0 0 0 0 0 0 0 0 0 0 0 0 0 0 0 0 0 0 0 0 0 0 0 0 0
0 0 0 0 0 0 0 0 0 0 0 0 0 0 0 0 0 0 0 0 0 0 0 0 0 0 0 0 0 0 0 0 0 0 0 0 0 0 0 0 0 0 0
0 0 0 0 0 0 0 0 0 0 0 0 0 0 0 0 0 0 0 0 0 0 0 0 0 0 0 0 0 0 0 0 0 0 0 0 0 0 0 0 0 0 0
0 0 0 0 0 0 0 0 0 0 0 0 0 0 0 0 0 0 0 0 0 0 0 0 0 0 0 0 0 0 0 0 0 0 0 0 0 0 0 0 0 0 0
Wind_Speed
1 1 1 1 1 1 1 2 2 2 2 3 3 3 3 3 3 3 3 3 4 3 3 4 5 4 3 3 4 4 4 4 5 3 2 2 4 4 3 3 3 3 4
1 1 1 1 1 1 2 2 2 2 3 3 3 3 3 3 3 4 4 4 4 5 4 4 5 4 5 4 4 5 5 5 5 5 3 3 4 4 4 4 3 3 3
1 1 1 1 1 2 2 2 2 3 3 3 3 3 4 4 4 5 5 5 5 5 5 5 5 5 6 5 5 5 5 4 4 5 4 3 3 3 3 3 3 3 3
1 1 1 2 2 2 2 2 2 3 3 3 4 4 4 4 5 5 5 5 5 5 5 6 6 6 7 6 6 6 5 5 5 5 5 4 3 3 3 3 3 3 3
1 1 2 2 2 2 2 3 3 3 3 3 4 4 4 4 5 5 5 5 6 6 6 6 6 8 9 8 6 5 6 5 5 5 5 4 4 4 5 3 4 3 3
2 2 2 2 3 3 3 3 3 3 3 3 3 4 5 4 8 9 7 6 6 6 6 6 7 8 10 11 12 11 10 8 8 7 6 7 7 6 4 4 4 3 4
2 2 2 3 3 3 4 3 3 3 3 4 4 4 5 6 10 10 10 6 6 6 6 6 6 6 8 6 9 11 11 13 13 9 9 9 8 8 7 6 6 6 5
2 2 3 3 3 3 3 4 4 3 3 4 4 5 5 7 10 10 11 6 5 6 6 6 6 6 6 6 6 7 7 9 10 8 9 9 8 8 9 8 7 4 3
3 3 3 3 3 3 4 4 4 4 4 4 4 4 4 6 10 10 10 5 5 6 6 7 7 7 10 11 7 7 7 7 9 12 12 11 12 12 9 5 5 4 4
4 4 4 3 3 4 4 4 4 4 4 4 5 4 4 6 10 11 10 4 5 5 5 6 10 10 12 12 8 7 8 7 6 6 7 8 8 9 12 9 8 6 4
4 4 4 4 4 4 3 3 4 4 4 4 5 5 5 6 9 11 10 5 4 5 5 5 6 11 13 13 11 7 9 7 6 6 5 4 4 5 6 6 6 7 6
4 4 4 4 4 3 3 4 4 4 4 4 4 5 4 6 8 9 11 10 8 5 5 5 6 11 13 13 10 9 11 8 4 4 4 4 4 4 4 4 5 5 5
4 4 4 4 4 3 3 3 3 3 3 4 4 5 5 5 6 11 12 11 11 6 5 8 10 12 11 8 10 11 8 4 3 4 5 5 4 4 3 3 3 3 2
4 4 4 4 4 3 3 3 3 3 3 4 4 5 5 5 5 5 5 6 8 7 5 7 10 10 7 6 6 5 4 3 4 4 4 4 3 3 4 4 4 4 3
4 4 4 4 3 3 3 3 4 4 4 5 4 4 5 5 7 11 8 5 4 4 4 3 2 3 3 3 3 3 3 2 3 3 3 3 4 4 4 4 4 4 4
4 4 3 3 3 3 4 4 7 7 10 11 10 9 7 10 13 13 13 12 11 8 5 3 3 3 3 3 3 3 2 3 3 3 3 4 4 4 4 4 4 4 4
3 4 3 3 3 4 4 4 5 7 9 10 11 12 12 12 12 13 12 11 10 7 3 2 2 3 3 3 3 3 3 3 3 3 4 4 4 4 4 5 5 4 4
4 5 4 3 3 3 4 4 4 5 6 6 8 12 13 13 13 13 12 8 5 4 3 2 3 3 3 3 3 3 3 3 3 3 4 4 4 4 5 5 5 5 5
4 3 3 3 3 3 4 4 4 4 5 6 6 7 11 12 12 11 9 4 3 3 3 3 3 3 3 3 3 3 3 3 3 2 3 3 4 4 4 5 5 7 5
3 6 5 3 3 3 3 4 4 4 5 5 5 6 6 7 5 5 4 3 3 3 3 3 3 3 3 3 3 3 3 2 2 2 2 3 3 3 4 5 5 5 4
3 4 7 4 3 3 3 4 4 4 5 5 5 7 10 5 4 4 4 3 3 3 3 3 3 4 3 3 3 3 3 3 2 2 2 2 2 2 2 3 3 4 4
3 3 3 3 3 3 4 4 4 4 5 6 6 7 11 5 4 4 4 4 3 3 3 3 3 3 3 3 3 3 3 3 2 2 2 2 2 2 2 2 3 3 4
3 3 3 3 3 6 5 4 4 5 5 5 5 6 5 4 4 4 4 4 4 3 3 3 3 4 3 3 3 3 3 4 3 3 3 2 2 2 3 3 4 4 4
3 3 4 4 4 4 4 4 4 5 5 5 5 5 5 4 4 5 5 4 4 4 4 3 4 5 6 5 4 3 3 4 3 3 4 3 3 3 3 3 3 4 4
2 3 3 3 4 4 4 5 5 5 5 5 5 5 5 5 5 5 4 4 5 5 5 5 4 5 6 7 6 5 7 9 7 4 3 3 4 4 4 4 4 3 4
2 3 3 3 4 4 4 5 5 5 5 6 6 6 5 5 5 5 5 4 5 5 5 5 6 6 7 6 7 8 10 10 10 9 4 3 4 4 4 4 4 4 4
Wind_Direction
279 273 275 278 275 263 259 264 273 283 277 266 265 265 270 264 249 232 246 241 234 239 237 229 233 232 236 235 221 214 213 209 229 248 239 222 210 217 232 224 224 232 242
299 298 288 288 288 268 275 279 280 282 278 273 268 261 258 260 250 236 241 244 234 238 241 239 238 233 233 237 226 222 220 214 216 235 238 220 225 217 212 219 235 243 237
314 305 306 303 301 288 286 289 284 281 282 277 268 258 258 257 254 244 237 244 239 237 237 239 241 233 237 238 234 227 226 225 218 221 230 219 221 217 208 225 229 230 241
314 302 302 301 297 295 297 298 289 281 275 271 270 265 263 260 258 250 242 249 246 242 239 237 237 232 234 232 235 230 222 221 219 217 223 216 217 203 197 211 232 221 235
306 306 307 311 312 312 311 307 301 295 288 279 275 273 270 260 254 254 241 245 243 244 244 241 242 241 238 236 236 232 221 219 217 219 220 221 215 200 209 205 226 237 237
315 316 322 327 329 325 317 311 308 308 304 297 287 279 273 268 266 263 254 245 242 241 245 247 247 248 247 248 249 245 233 221 216 217 221 219 219 211 207 207 212 220 244
323 328 332 328 325 322 319 319 310 305 306 301 292 284 277 279 278 271 262 254 243 243 243 245 249 248 249 244 249 252 248 243 232 219 219 221 215 205 199 209 213 221 232
327 330 333 327 319 318 316 311 304 301 299 294 291 283 279 280 284 278 272 260 247 243 244 243 243 247 245 246 244 247 247 244 240 232 224 222 217 207 201 206 212 222 232
330 324 323 318 315 317 314 307 305 306 304 296 290 290 289 290 291 286 280 261 254 248 248 247 245 242 249 250 245 244 251 255 254 249 241 233 228 222 209 188 188 199 225
317 312 311 310 307 305 303 304 306 302 300 301 299 296 292 292 293 289 282 261 256 255 253 249 250 252 251 250 243 237 242 246 244 251 251 243 227 218 214 199 188 196 207
315 315 314 311 306 301 303 307 309 309 313 309 303 301 295 293 296 293 288 272 254 254 254 252 251 258 258 256 252 241 243 243 228 225 228 224 214 207 208 210 202 199 203
321 317 313 312 311 315 316 312 311 311 309 307 305 304 297 294 301 298 294 291 283 258 256 256 257 264 263 262 258 256 255 248 220 209 209 212 208 208 209 209 212 220 222
323 316 310 310 308 310 307 307 310 312 308 305 305 305 306 306 303 304 299 297 295 285 266 268 268 265 266 263 260 257 250 226 210 217 213 213 206 201 196 203 207 206 217
312 310 308 309 310 312 304 300 299 299 302 303 304 303 304 305 306 304 301 295 290 288 280 275 275 274 272 270 269 260 238 219 215 224 221 211 191 191 201 199 201 192 202
305 306 309 308 304 301 301 294 295 281 291 299 293 292 299 300 307 311 309 299 289 277 280 268 268 264 257 257 255 252 236 228 232 222 214 210 203 203 208 198 194 193 202
306 310 308 310 308 308 307 308 305 307 308 308 309 309 298 302 308 310 311 310 306 299 290 273 263 258 256 252 248 248 241 233 228 220 215 213 210 209 211 203 197 201 209
288 296 299 307 309 309 308 308 312 314 313 316 317 317 315 317 316 317 315 313 316 319 311 304 293 284 278 274 261 248 243 241 235 222 217 214 215 215 211 208 204 205 212
288 291 298 295 299 299 299 299 302 308 314 315 317 319 321 321 322 323 322 320 320 324 317 306 299 297 293 285 280 267 257 247 236 230 220 214 212 211 213 210 204 203 208
290 291 292 293 296 296 298 298 297 298 300 306 312 315 320 320 319 324 329 329 322 317 315 305 300 295 292 291 289 280 263 253 246 239 226 216 213 212 216 210 205 211 210
286 296 302 297 296 299 299 300 300 299 300 302 305 311 316 319 319 320 322 323 317 312 312 310 307 305 302 296 293 291 282 268 251 243 244 225 214 216 217 210 205 202 207
288 293 301 302 295 294 296 296 297 298 299 301 301 306 314 315 312 312 314 314 308 302 304 306 308 309 305 300 294 289 287 282 267 257 253 238 215 213 215 209 204 198 192
281 279 283 287 290 290 292 291 294 295 296 298 302 307 313 319 315 311 307 305 303 298 297 297 297 297 299 296 289 284 282 283 281 272 261 249 231 217 205 201 199 196 188
278 279 282 284 283 290 297 295 292 291 293 296 300 302 304 304 304 304 303 304 302 300 298 293 292 294 297 293 288 278 270 269 267 257 250 244 233 217 205 203 199 198 200
272 273 277 282 284 284 288 291 292 292 294 295 297 296 292 293 294 296 297 298 297 293 291 288 285 287 292 295 290 282 276 275 266 247 238 235 231 219 210 207 208 206 203
267 272 277 279 281 283 285 288 289 291 293 295 296 296 292 289 290 291 291 290 288 285 285 283 282 282 282 283 284 283 285 285 280 261 231 228 227 216 210 210 210 208 207
273 276 277 277 277 279 283 286 288 290 291 293 294 294 290 286 283 285 286 286 287 284 282 279 280 280 280 278 281 282 282 280 279 272 253 230 222 218 210 213 209 206 205